WA9NNN-10 Weather Reports


Display with metric or nautical units.
time (UTC)temp
F
wind
direction
speed
MPH
gust
MPH
rain 1hr
in
rain 24hr
in
rain mn
in
humidity
%
barometer
mb
20260505022136 64 206 2.0 4.0 0.00 0.26 0.26 73 999.2
20260505021636 64 212 4.0 4.0 0.00 0.26 0.26 73 999.0
20260505021137 64 205 3.0 5.0 0.00 0.26 0.26 73 999.1
20260505020636 64 177 5.0 5.0 0.00 0.26 0.26 73 999.0
20260505020136 64 220 8.0 6.0 0.00 0.26 0.26 74 999.2
20260505015637 64 206 5.0 7.0 0.00 0.26 0.26 74 999.2
20260505015136 64 195 11.0 6.0 0.00 0.26 0.26 74 999.1
20260505014636 64 226 9.0 5.0 0.00 0.26 0.26 75 999.4
20260505014137 64 225 4.0 4.0 0.00 0.26 0.26 75 999.2
20260505013636 64 220 3.0 5.0 0.00 0.26 0.26 76 998.8
20260505013137 64 213 5.0 6.0 0.00 0.26 0.26 77 998.7
20260505012636 64 211 6.0 6.0 0.00 0.26 0.26 77 998.6
20260505012136 63 202 3.0 6.0 0.00 0.26 0.26 79 998.6
20260505011637 63 193 6.0 5.0 0.00 0.26 0.26 80 998.6
20260505011136 63 191 3.0 3.0 0.00 0.26 0.26 81 998.3
20260505010636 63 222 4.0 2.0 0.00 0.26 0.26 82 998.0
20260505010136 63 214 1.0 2.0 0.00 0.26 0.26 82 998.0
20260505005636 63 210 3.0 1.0 0.00 0.26 0.26 82 998.1
20260505005137 63 0 0.0 1.0 0.00 0.26 0.26 82 998.1
20260505004636 63 210 1.0 2.0 0.05 0.26 0.26 82 998.1
20260505004138 63 184 3.0 3.0 0.10 0.26 0.26 82 998.2
20260505003636 63 212 3.0 3.0 0.12 0.26 0.26 82 998.1
20260505003137 63 202 5.0 2.0 0.21 0.26 0.26 82 998.2
20260505002636 63 217 3.0 2.0 0.21 0.26 0.26 82 998.2
20260505002136 64 202 2.0 2.0 0.22 0.26 0.26 82 998.0
20260505001636 64 0 0.0 2.0 0.26 0.26 0.26 81 997.8
20260505001136 64 200 2.0 2.0 0.26 0.26 0.26 80 997.5
20260505000636 64 223 3.0 3.0 0.26 0.26 0.26 79 997.3
20260505000137 64 193 4.0 3.0 0.26 0.26 0.26 78 997.1
20260504235636 64 193 7.0 5.0 0.26 0.26 0.26 76 997.0
20260504235136 65 221 4.0 5.0 0.26 0.26 0.26 73 997.4
20260504234636 66 221 14.0 4.0 0.21 0.21 0.21 70 998.4
20260504234136 68 227 2.0 3.0 0.15 0.15 0.15 68 998.5
20260504233636 69 216 4.0 4.0 0.13 0.13 0.13 67 998.9
20260504233136 70 271 3.0 4.0 0.05 0.05 0.05 64 998.4
20260504232636 72 333 1.0 7.0 0.05 0.05 0.05 62 998.2
20260504232137 74 360 6.0 6.0 0.04 0.04 0.04 58 998.2
20260504231636 75 305 5.0 3.0 0.00 0.00 0.00 49 997.8
20260504231136 75 241 2.0 4.0 0.00 0.00 0.00 49 997.5
20260504230636 75 236 5.0 4.0 0.00 0.00 0.00 49 997.4
20260504230137 75 214 3.0 6.0 0.00 0.00 0.00 48 997.2
20260504225636 76 205 5.0 7.0 0.00 0.00 0.00 48 997.3
20260504225137 76 201 9.0 7.0 0.00 0.00 0.00 46 997.2
20260504224638 78 207 20.0 8.0 0.00 0.00 0.00 44 997.1
20260504224136 79 237 6.0 9.0 0.00 0.00 0.00 43 997.2
20260504223636 80 234 5.0 7.0 0.00 0.00 0.00 40 997.2
20260504223136 80 215 7.0 6.0 0.00 0.00 0.00 38 997.0
20260504222636 80 186 6.0 6.0 0.00 0.00 0.00 37 997.1
20260504222137 81 231 6.0 6.0 0.00 0.00 0.00 37 997.1
20260504221636 81 241 6.0 6.0 0.00 0.00 0.00 37 997.2
20260504221137 80 245 5.0 7.0 0.00 0.00 0.00 37 997.2
20260504220636 80 216 5.0 8.0 0.00 0.00 0.00 37 997.4
20260504220137 81 169 8.0 9.0 0.00 0.00 0.00 36 997.4
20260504215636 81 204 10.0 8.0 0.00 0.00 0.00 36 997.4
20260504215136 82 232 7.0 8.0 0.00 0.00 0.00 36 997.5
20260504214636 82 236 11.0 8.0 0.00 0.00 0.00 35 997.6
20260504214136 82 231 4.0 6.0 0.00 0.00 0.00 36 997.6
20260504213636 81 236 9.0 6.0 0.00 0.00 0.00 36 997.6
20260504213136 80 223 1.0 6.0 0.00 0.00 0.00 36 997.6
20260504212637 80 207 10.0 7.0 0.00 0.00 0.00 36 997.8
20260504212137 80 186 10.0 8.0 0.00 0.00 0.00 36 997.8
20260504211637 80 227 6.0 7.0 0.00 0.00 0.00 36 997.9
20260504211137 81 211 7.0 6.0 0.00 0.00 0.00 36 997.8
20260504210637 81 240 8.0 6.0 0.00 0.00 0.00 37 998.0
20260504210138 81 224 3.0 7.0 0.00 0.00 0.00 36 998.1
20260504205637 82 220 7.0 6.0 0.00 0.00 0.00 36 998.1
20260504205138 82 229 6.0 6.0 0.00 0.00 0.00 36 998.0
20260504204637 82 216 4.0 5.0 0.00 0.00 0.00 36 998.2
20260504204137 82 219 4.0 5.0 0.00 0.00 0.00 36 998.0
20260504203637 81 208 3.0 6.0 0.00 0.00 0.00 36 998.1
20260504203138 81 246 4.0 8.0 0.00 0.00 0.00 35 998.2
20260504202637 82 238 9.0 8.0 0.00 0.00 0.00 34 998.3
20260504202137 82 215 9.0 8.0 0.00 0.00 0.00 34 998.4
20260504201637 82 227 3.0 7.0 0.00 0.00 0.00 34 998.3
20260504201138 82 241 7.0 7.0 0.00 0.00 0.00 33 998.5
20260504200637 82 200 4.0 5.0 0.00 0.00 0.00 33 998.4
20260504200137 82 194 6.0 5.0 0.00 0.00 0.00 33 998.7
20260504195637 81 251 2.0 5.0 0.00 0.00 0.00 33 998.8
20260504195137 82 224 8.0 7.0 0.00 0.00 0.00 31 998.9
20260504194637 83 219 5.0 8.0 0.00 0.00 0.00 30 999.0
20260504194137 84 226 4.0 6.0 0.00 0.00 0.00 30 999.1
20260504193637 85 233 10.0 4.0 0.00 0.00 0.00 29 999.1
20260504193137 84 236 7.0 5.0 0.00 0.00 0.00 31 999.1
20260504192636 83 174 4.0 5.0 0.00 0.00 0.00 31 999.2
20260504192137 83 279 5.0 6.0 0.00 0.00 0.00 31 999.4
20260504191637 83 226 4.0 7.0 0.00 0.00 0.00 31 999.4
20260504191137 84 218 5.0 7.0 0.00 0.00 0.00 29 999.4
20260504190637 84 264 7.0 6.0 0.00 0.00 0.00 29 999.3
20260504190139 84 160 11.0 6.0 0.00 0.00 0.00 28 999.4
20260504185637 84 292 4.0 7.0 0.00 0.00 0.00 28 999.3
20260504185137 83 207 6.0 8.0 0.00 0.00 0.00 28 999.3
20260504184637 84 238 7.0 6.0 0.00 0.00 0.00 28 999.3
20260504184137 84 238 8.0 6.0 0.00 0.00 0.00 29 999.4
20260504183637 84 212 3.0 7.0 0.00 0.00 0.00 28 999.3
20260504183137 83 223 2.0 8.0 0.00 0.00 0.00 27 999.4
20260504182637 84 240 6.0 6.0 0.00 0.00 0.00 28 999.7
20260504182137 84 232 9.0 5.0 0.00 0.00 0.00 30 999.6
20260504181637 84 216 3.0 5.0 0.00 0.00 0.00 29 999.7
20260504181137 83 194 9.0 6.0 0.00 0.00 0.00 28 999.9
20260504180636 83 235 4.0 6.0 0.00 0.00 0.00 30 999.8
20260504180137 83 271 6.0 6.0 0.00 0.00 0.00 29 999.9
20260504175637 83 223 5.0 7.0 0.00 0.00 0.00 31 999.9
20260504175137 82 224 4.0 6.0 0.00 0.00 0.00 32 999.9
20260504174636 83 244 4.0 5.0 0.00 0.00 0.00 34 1000.0
20260504174137 82 233 4.0 5.0 0.00 0.00 0.00 34 1000.1
20260504173637 81 229 4.0 5.0 0.00 0.00 0.00 36 1000.0
20260504173137 81 184 4.0 7.0 0.00 0.00 0.00 36 1000.2
20260504172637 80 210 6.0 8.0 0.00 0.00 0.00 36 1000.2
20260504172138 80 203 12.0 7.0 0.00 0.00 0.00 35 1000.4
20260504171637 80 221 11.0 6.0 0.00 0.00 0.00 37 1000.4
20260504171137 80 206 4.0 7.0 0.00 0.00 0.00 37 1000.5
20260504170636 79 231 4.0 8.0 0.00 0.00 0.00 38 1000.5
20260504170137 79 214 8.0 8.0 0.00 0.00 0.00 37 1000.6
20260504160137 76 173 5.0 7.0 0.00 0.00 0.00 37 1001.5
20260504151137 72 210 5.0 6.0 0.00 0.00 0.00 41 1002.1
20260504150636 71 209 8.0 7.0 0.00 0.00 0.00 42 1002.2
20260504150137 71 172 6.0 6.0 0.00 0.00 0.00 41 1002.2
20260504141137 66 219 9.0 5.0 0.00 0.00 0.00 52 1002.8
20260504140637 65 234 8.0 5.0 0.00 0.00 0.00 53 1002.8
20260504140137 65 224 4.0 5.0 0.00 0.00 0.00 54 1002.9
20260504130636 58 238 4.0 4.0 0.00 0.00 0.00 69 1003.5
20260504130137 57 225 1.0 4.0 0.00 0.00 0.00 70 1003.6
20260504120136 53 209 3.0 3.0 0.00 0.00 0.00 78 1003.8
20260504110636 51 181 2.0 3.0 0.00 0.00 0.00 78 1003.8
20260504110136 51 210 4.0 4.0 0.00 0.00 0.00 78 1003.9
20260504100137 52 205 1.0 2.0 0.00 0.00 0.00 77 1003.9
20260504090137 53 0 0.0 1.0 0.00 0.00 0.00 74 1003.9
20260504081636 54 208 1.0 1.0 0.00 0.00 0.00 69 1003.7
20260504081137 54 182 1.0 0.0 0.00 0.00 0.00 69 1003.7
20260504080636 54 0 0.0 0.0 0.00 0.00 0.00 68 1003.7
20260504080136 55 0 0.0 1.0 0.00 0.00 0.00 69 1003.7
20260504070136 57 207 2.0 2.0 0.00 0.00 0.00 66 1004.5
20260504060136 59 224 5.0 3.0 0.00 0.00 0.00 64 1005.0
20260504050637 58 195 4.0 2.0 0.00 0.00 0.00 66 1005.3
20260504050138 58 214 2.0 3.0 0.00 0.00 0.00 66 1005.3
20260504045637 58 212 3.0 3.0 0.00 0.00 0.00 66 1005.2
20260504045138 58 218 4.0 3.0 0.00 0.00 0.00 65 1005.2
20260504044637 59 200 2.0 3.0 0.00 0.00 0.00 65 1005.3
20260504044137 59 195 2.0 3.0 0.00 0.00 0.00 65 1005.2
20260504043637 59 202 2.0 3.0 0.00 0.00 0.00 64 1005.2
20260504043137 59 212 2.0 3.0 0.00 0.00 0.00 64 1005.3
20260504042636 59 203 2.0 3.0 0.00 0.00 0.00 64 1005.3
20260504042137 59 191 4.0 3.0 0.00 0.00 0.00 63 1005.3
20260504041637 59 186 4.0 3.0 0.00 0.00 0.00 63 1005.2
20260504041137 60 210 3.0 3.0 0.00 0.00 0.00 63 1005.3
20260504040637 60 220 3.0 3.0 0.00 0.00 0.00 62 1005.4
20260504040137 60 203 1.0 3.0 0.00 0.00 0.00 62 1005.5
20260504035636 60 218 1.0 2.0 0.00 0.00 0.00 62 1005.6
20260504035137 60 186 1.0 3.0 0.00 0.00 0.00 61 1005.6
20260504034637 60 167 3.0 3.0 0.00 0.00 0.00 61 1005.7
20260504034137 60 217 3.0 3.0 0.00 0.00 0.00 61 1005.7
20260504033637 61 208 3.0 3.0 0.00 0.00 0.00 61 1005.8
20260504033137 61 216 3.0 3.0 0.00 0.00 0.00 60 1005.9
20260504032637 61 217 4.0 3.0 0.00 0.00 0.00 60 1006.0
20260504032137 61 195 4.0 3.0 0.00 0.00 0.00 60 1006.0
20260504031636 61 212 2.0 3.0 0.00 0.00 0.00 59 1006.1
20260504031137 61 197 3.0 3.0 0.00 0.00 0.00 59 1006.0
20260504030637 61 206 2.0 3.0 0.00 0.00 0.00 58 1006.1
20260504030137 62 210 1.0 4.0 0.00 0.00 0.00 58 1006.1
20260504025637 62 200 2.0 3.0 0.00 0.00 0.00 58 1006.1
20260504025137 62 186 6.0 3.0 0.00 0.00 0.00 58 1006.1
20260504024636 62 234 2.0 3.0 0.00 0.00 0.00 57 1006.0
20260504024137 62 181 2.0 3.0 0.00 0.00 0.00 57 1006.1
20260504023636 62 193 4.0 3.0 0.00 0.00 0.00 57 1006.0
20260504023137 63 235 4.0 3.0 0.00 0.00 0.00 56 1006.0
20260504022637 63 212 3.0 4.0 0.00 0.00 0.00 56 1006.0